Hourly Data Report for October 06, 2017

All times are specified in Local Standard Time (LST). Add 1 hour to adjust for Daylight Saving Time where and when it is observed.

TORONTO INTL A
ONTARIO

43°40'36.000" N
79°37'50.000" W
173.40 m
6158731
71624
YYZ

Download Data

Hourly Data (October 2017)
Hourly Data Report for October 6, 2017
Temp Definition
°C
Dew Point Temp Definition
°C
Rel Hum Definition
%
Wind Dir Definition
10's deg

Wind Spd Definition
km/h
Visibility Definition
km
Stn Press Definition
kPa
Hmdx Definition


Wind Chill Definition


Weather Definition


TIME
00:00 Legend Double Dagger 17.2 8.1 55 18 4 24.1 99.70     LegendNANA
01:00 Legend Double Dagger 15.1 10.8 75 26 8 24.1 99.80     Rain Showers
02:00 Legend Double Dagger 15.3 11.2 76 20 5 24.1 99.73     LegendNANA
03:00 Legend Double Dagger 15.0 11.6 80 32 4 24.1 99.75     LegendNANA
04:00 Legend Double Dagger 14.9 11.4 80 35 7 24.1 99.74     Mostly Cloudy
05:00 Legend Double Dagger 14.5 11.8 83 26 5 24.1 99.75     LegendNANA
06:00 Legend Double Dagger 14.7 11.5 81 36 3 24.1 99.74     LegendNANA
07:00 Legend Double Dagger 14.3 11.4 83 28 8 24.1 99.78     Mostly Cloudy
08:00 Legend Double Dagger 15.2 11.8 80 28 7 24.1 99.80     LegendNANA
09:00 Legend Double Dagger 16.6 12.0 74 31 9 24.1 99.81     LegendNANA
10:00 Legend Double Dagger 17.0 11.6 70 3 4 24.1 99.80     Cloudy
11:00 Legend Double Dagger 17.3 11.1 66 0 1 24.1 99.78     LegendNANA
12:00 Legend Double Dagger 19.0 11.6 62 19 3 24.1 99.75     LegendNANA
13:00 Legend Double Dagger 19.1 10.8 58 23 5 24.1 99.71     Mostly Cloudy
14:00 Legend Double Dagger 20.3 10.9 54 19 4 24.1 99.63     LegendNANA
15:00 Legend Double Dagger 18.7 11.7 64 15 12 24.1 99.61     LegendNANA
16:00 Legend Double Dagger 18.8 11.3 61 13 12 24.1 99.59     Mostly Cloudy
17:00 Legend Double Dagger 18.6 11.2 62 16 10 24.1 99.56     LegendNANA
18:00 Legend Double Dagger 18.3 11.3 63 13 10 24.1 99.56     LegendNANA
19:00 Legend Double Dagger 18.0 11.5 65 12 8 24.1 99.58     Rain
20:00 Legend Double Dagger 17.9 11.1 64 11 10 24.1 99.59     LegendNANA
21:00 Legend Double Dagger 17.6 11.9 69 13 9 24.1 99.57     LegendNANA
22:00 Legend Double Dagger 17.5 13.0 75 12 11 24.1 99.58     Cloudy
23:00 Legend Double Dagger 16.7 14.7 88 14 10 9.7 99.52     Drizzle

Notes on Data Quality.

Legend

  • E = Estimated
  • M = Missing
  • NA = Not Available
  • ‡ = Partner data that is not subject to review by the National Climate Archives
Date modified: